Location: Franzen
(48.6167°N, 15.3833°E)
Time: 23:26:51
(UTC+00:00)

Cosmos 2219 - Pass Details

Date: 31 July 2021
Orbit: 834 x 859 km, 71.1° (Epoch: 22 September)

Event Time Altitude Azimuth Distance (km) Brightness Sun altitude
Exits shadow 22:14:35 31° 113° (ESE) 1,459 4.1 -22.4°
Maximum altitude 22:14:59 32° 105° (ESE) 1,450 4.2 -22.4°
Drops below altitude 10° 22:19:58 10° 44° (NE) 2,504 6.1 -22.6°
Sets 22:22:40 0° 35° (NE) 3,446 7.0 -22.7°
